Location: Peebles
(55.6412°N, 3.1714°W)
Time: 03:30:58
(UTC+01:00)

Envisat - Pass Details

Date: 24 February 2024
Orbit: 762 x 764 km, 98.3° (Epoch: 11 September)

Event Time Altitude Azimuth Distance (km) Brightness Sun altitude
Rises 02:10:37 0° 26° (NNE) 3,247 7.1 -39.7°
Reaches altitude 10° 02:14:01 10° 50° (NE) 2,315 6.1 -39.4°
Enters shadow 02:16:17 15° 76° (ENE) 2,006 5.6 -39.2°
